This is the latest recevied weather packets stored in our database for station/object SQ9RHX-13. If no packets are shown the sender has not sent any weather packets the latest 10 day(s).
| Time | Temp. | Humidity | Pressure | Rain* | Wind** | Luminosity | Snow |
|---|---|---|---|---|---|---|---|
| 1777706403 | 19.44° C | 46% | 1029.3 hPa | 0 mm | - | 376 W/m² | - |
| 1777706103 | 18.89° C | 48% | 1029 hPa | 0 mm | - | 362 W/m² | - |
| 1777705803 | 18.89° C | 46% | 1029.1 hPa | 0 mm | - | 349 W/m² | - |
| 1777705504 | 18.89° C | 48% | 1029.1 hPa | 0 mm | - | 335 W/m² | - |
| 1777705203 | 18.33° C | 49% | 1029.2 hPa | 0 mm | - | 323 W/m² | - |
| 1777704902 | 17.78° C | 51% | 1029.1 hPa | 0 mm | - | 362 W/m² | - |
| 1777704604 | 17.22° C | 50% | 1029 hPa | 0 mm | - | 297 W/m² | - |
| 1777704303 | 17.22° C | 52% | 1029.1 hPa | 0 mm | - | 277 W/m² | - |
| 1777704003 | 16.67° C | 53% | 1029.2 hPa | 0 mm | - | 50 W/m² | - |
| 1777703705 | 16.11° C | 55% | 1029.2 hPa | 0 mm | - | 261 W/m² | - |
| 1777703403 | 16.11° C | 55% | 1029.2 hPa | 0 mm | - | 242 W/m² | - |
| 1777703105 | 16.67° C | 57% | 1029.1 hPa | 0 mm | - | 237 W/m² | - |
| 1777702803 | 16.67° C | 56% | 1029.2 hPa | 0 mm | - | 225 W/m² | - |
| 1777702504 | 15.56° C | 58% | 1029.2 hPa | 0 mm | - | 213 W/m² | - |
| 1777702202 | 15° C | 62% | 1029.1 hPa | 0 mm | - | 201 W/m² | - |
| 1777701903 | 14.44° C | 63% | 1029.1 hPa | 0 mm | - | 192 W/m² | - |
| 1777701604 | 14.44° C | 62% | 1029.3 hPa | 0 mm | - | 175 W/m² | - |
| 1777701305 | 14.44° C | 61% | 1029.2 hPa | 0 mm | - | 146 W/m² | - |
| 1777701004 | 14.44° C | 60% | 1029.3 hPa | 0 mm | - | 124 W/m² | - |
| 1777700703 | 14.44° C | 61% | 1028.9 hPa | 0 mm | - | 105 W/m² | - |
| 1777700403 | 13.89° C | 64% | 1029.1 hPa | 0 mm | - | 92 W/m² | - |
| 1777700103 | 13.33° C | 63% | 1029.1 hPa | 0 mm | - | 83 W/m² | - |
| 1777699803 | 12.78° C | 71% | 1029.2 hPa | 0 mm | - | 75 W/m² | - |
| 1777699503 | 12.22° C | 74% | 1029.2 hPa | 0 mm | - | 69 W/m² | - |
| 1777699202 | 11.67° C | 84% | 1029.1 hPa | 0 mm | - | 64 W/m² | - |
* Rain latest hour (hover to see other rain measurements)
** Current wind speed in m/s (hover to see current wind gust speed)